Location: ????????
(55.8351°N, 38.7040°E)
Time: 10:15:55
(UTC+00:00)

Cosmos 2360 Rocket - Pass Details

Date: 14 April 2024
Orbit: 832 x 846 km, 71.0° (Epoch: 20 May)

Event Time Altitude Azimuth Distance (km) Brightness Sun altitude
Exits shadow 00:10:06 23° 247° (WSW) 1,713 3.3 -16.3°
Maximum altitude 00:13:27 51° 314° (NW) 1,048 2.7 -16.0°
Drops below altitude 10° 00:18:58 10° 30° (NNE) 2,467 5.9 -15.4°
Sets 00:21:30 0° 36° (NE) 3,407 7.1 -15.2°
